Powrót do katalogu

STARLINK-4427

AktywnyŁącznośćSSO
NORAD 53210·PAYLOAD·🇺🇸 United States

Wystrzelony Jul 22, 2022 z Vandenberg Space Force Base

Loading…

Następne Przeloty (najbliższe 24 godziny)

TLE

ŚwieżeSource: CelesTrak SupGP

Epoka: Sep 15, 2026, 01:23 UTC

1 53210C 22084X   26258.05812500  .00047334  00000+0  14693-2 0  2584
2 53210  97.2832 312.9428 0001273  86.0145 345.6171 15.33417740    13

Śledź STARLINK-4427 w czasie rzeczywistym z AllMySat

Download on the App Store